EHI
0 0 0 0 0 0 0 0 0 0 0 0 0 0 0 0 0 0 0 0 0 0 0 0 0 0 0 0 0 0 0 0 0 0 0 0 0 0
0 0 0 0 0 0 0 0 0 0 0 0 0 0 0 0 0 0 0 0 0 0 0 0 0 0 0 0 0 0 0 0 0 0 0 0 0 0
0 0 0 0 0 0 0 0 0 0 0 0 0 0 0 0 0 0 0 0 0 0 0 0 0 0 0 0 0 0 0 0 0 0 0 0 0 0
0 0 0 0 0 0 0 0 0 0 0 0 0 0 0 0 0 0 0 0 0 0 0 0 0 0 0 0 0 0 0 0 0 0 0 0 0 0
0 0 0 0 0 0 0 0 0 0 0 0 0 0 0 0 0 0 0 0 0 0 0 0 0 0 0 0 0 0 0 0 0 0 0 0 0 0
0 0 0 0 0 0 0 0 0 0 0 0 0 0 0 0 0 0 0 0 0 0 0 0 0 0 0 0 0 0 0 0 0 0 0 0 0 0
0 0 0 0 0 0 0 0 0 0 0 0 0 0 0 0 0 0 0 0 0 0 0 0 0 0 0 0 0 0 0 0 0 0 0 0 0 0
0 0 0 0 0 0 0 0 0 0 0 0 0 0 0 0 0 0 0 0 0 0 0 0 0 0 0 0 0 0 0 0 0 0 0 0 0 0
0 0 0 0 0 0 0 0 0 0 0 0 0 0 0 0 0 0 0 0 0 0 0 0 0 0 0 0 0 0 0 0 0 0 0 0 0 0
0 0 0 0 0 0 0 0 0 0 0 0 0 0 0 0 0 0 0 0 0 0 0 0 0 0 0 0 0 0 0 0 0 0 0 0 0 0
0 0 0 0 0 0 0 0 0 0 0 0 0 0 0 0 0 0 0 0 0 0 0 0 0 0 0 0 0 0 0 0 0 0 0 0 0 0
0 0 0 0 0 0 0 0 0 0 0 0 0 0 0 0 0 0 0 0 0 0 0 0 0 0 0 0 0 0 0 0 0 0 0 0 0 0
0 0 0 0 0 0 0 0 0 0 0 0 0 0 0 0 0 0 0 0 0 0 0 0 0 0 0 0 0 0 0 0 0 0 0 0 0 0
0 0 0 0 0 0 0 0 0 0 0 0 0 0 0 0 0 0 0 0 0 0 0 0 0 0 0 0 0 0 0 0 0 0 0 0 0 0
0 0 0 0 0 0 0 0 0 0 0 0 0 0 0 0 0 0 0 0 0 0 0 0 0 0 0 0 0 0 0 0 0 0 0 0 0 0
0 0 0 0 0 0 0 0 0 0 0 0 0 0 0 0 0 0 0 0 0 0 0 0 0 0 0 0 0 0 0 0 0 0 0 0 0 0
0 0 0 0 0 0 0 0 0 0 0 0 0 0 0 0 0 0 0 0 0 0 0 0 0 0 0 0 0 0 0 0 0 0 0 0 0 0
0 0 0 0 0 0 0 0 0 0 0 0 0 0 0 0 0 0 0 0 0 0 0 0 0 0 0 0 0 0 0 0 0 0 0 0 0 0
0 0 0 0 0 0 0 0 0 0 0 0 0 0 0 0 0 0 0 0 0 0 0 0 0 0 0 0 0 0 0 0 0 0 0 0 0 0
0 0 0 0 0 0 0 0 0 0 0 0 0 0 0 0 0 0 0 0 0 0 0 0 0 0 0 0 0 0 0 0 0 0 0 0 0 0
0 0 0 0 0 0 0 0 0 0 0 0 0 0 0 0 0 0 0 0 0 0 0 0 0 0 0 0 0 0 0 0 0 0 0 0 0 0
0 0 0 0 0 0 0 0 0 0 0 0 0 0 0 0 0 0 0 0 0 0 0 0 0 0 0 0 0 0 0 0 0 0 0 0 0 0
0 0 0 0 0 0 0 0 0 0 0 0 0 0 0 0 0 0 0 0 0 0 0 0 0 0 0 0 0 0 0 0 0 0 0 0 0 0
Wind_Speed
5 5 4 3 3 4 4 4 5 6 5 4 3 3 3 4 5 6 6 7 8 7 8 8 9 9 9 10 10 11 11 11 12 13 14 14 15 15
3 4 4 3 3 3 3 4 5 6 6 4 4 3 4 4 5 7 6 8 8 7 7 8 8 8 9 10 10 10 11 11 11 12 13 14 14 15
4 5 5 4 4 3 4 4 5 5 7 6 4 4 5 5 5 6 6 6 5 7 8 8 8 9 9 9 10 10 10 10 11 12 12 13 14 14
5 5 5 4 5 4 4 5 5 5 6 7 5 4 5 6 6 6 6 5 5 6 8 8 8 8 8 8 9 9 9 10 11 11 11 12 13 13
5 5 5 5 5 4 5 5 4 4 5 6 6 4 4 4 5 6 6 5 5 5 6 7 8 8 9 8 8 8 9 9 10 10 11 11 12 13
5 5 5 6 6 5 5 5 5 5 5 5 5 5 4 4 4 5 5 5 5 4 5 6 7 7 8 7 7 8 9 9 10 10 10 11 11 12
5 5 5 6 6 6 4 4 5 4 4 4 5 5 4 3 4 4 6 5 5 3 4 4 4 4 4 5 6 8 9 9 9 9 10 10 10 11
4 4 4 5 5 6 7 7 7 6 5 5 5 6 6 5 4 4 5 5 5 3 5 6 4 4 4 4 6 8 9 9 9 9 10 10 10 10
3 3 3 4 5 4 5 6 6 7 8 6 6 7 6 5 5 5 5 5 6 5 5 6 5 5 4 5 7 8 8 9 9 9 9 9 10 10
3 4 4 4 4 4 5 5 5 5 6 6 6 6 5 5 5 5 5 6 5 4 4 5 5 5 5 5 6 7 8 8 8 8 8 9 9 9
2 3 4 4 5 5 5 5 5 5 5 7 7 6 6 6 4 3 3 3 4 4 2 3 4 5 5 5 4 6 7 7 8 8 8 8 9 9
2 3 4 4 5 5 5 5 5 5 4 4 5 5 5 5 5 4 4 4 3 3 2 2 4 4 4 4 4 4 4 6 7 8 7 7 8 6
2 2 2 4 5 6 6 4 5 5 4 3 3 3 2 2 2 3 3 4 4 4 2 2 3 3 3 4 5 4 4 4 4 5 5 7 8 7
2 3 2 4 5 6 5 4 4 4 3 2 2 2 2 2 2 3 3 3 4 5 4 3 3 4 3 4 4 4 4 4 4 4 4 6 7 8
2 3 3 4 4 3 3 4 3 2 2 2 2 2 2 2 2 2 3 2 3 3 3 4 4 4 3 4 4 4 5 4 3 3 4 4 4 4
1 2 3 3 2 3 3 2 2 2 2 2 2 2 2 2 2 2 2 2 2 3 3 4 4 4 4 4 4 4 4 3 4 4 4 4 4 4
1 1 1 1 2 2 2 2 2 1 2 2 2 1 2 2 2 2 2 2 2 3 3 3 3 3 4 4 3 3 3 4 4 4 4 4 4 3
1 1 1 1 2 2 2 2 2 2 2 2 2 2 2 2 2 2 2 2 2 2 3 3 2 3 3 3 2 3 3 4 4 4 4 4 4 4
0 1 1 2 2 2 2 2 2 2 1 2 2 2 2 2 2 2 2 2 2 2 2 2 2 2 3 4 3 2 3 4 4 4 4 4 4 4
1 2 2 2 2 2 2 2 2 1 1 1 2 1 1 2 2 2 2 2 2 2 2 2 2 2 3 3 3 4 5 4 3 4 4 4 4 5
2 2 2 2 2 2 2 2 2 2 2 2 2 2 2 2 2 2 2 2 2 2 3 3 3 4 3 2 2 3 3 4 4 4 4 4 4 4
2 2 2 2 2 2 2 2 2 2 2 2 2 2 2 2 2 3 2 2 2 2 3 2 2 2 2 2 3 4 4 4 4 5 5 4 3 3
2 2 2 2 2 2 2 2 2 2 2 2 2 2 2 2 2 2 2 2 2 2 2 2 2 2 2 2 2 3 4 4 4 4 4 5 5 6
Wind_Direction
228 233 235 236 245 247 249 248 257 270 268 258 258 260 275 280 290 283 279 284 280 279 283 286 287 287 288 288 291 293 293 295 295 294 295 296 298 301
226 231 237 238 241 248 249 252 252 258 266 268 266 280 279 277 287 283 279 284 269 272 281 285 286 288 287 286 289 292 292 292 293 294 296 299 299 301
222 224 233 237 238 241 245 248 251 252 258 269 273 280 277 282 286 289 285 277 273 269 280 285 287 289 286 286 289 292 292 292 294 297 299 300 301 302
224 225 231 232 238 241 242 244 249 248 254 265 272 275 273 279 285 290 288 280 281 276 278 284 288 288 287 286 289 292 292 293 295 298 300 302 303 305
230 232 234 233 240 244 246 249 252 251 249 258 269 273 275 278 287 290 291 287 285 282 276 279 284 287 286 287 292 296 297 298 299 301 302 302 304 305
236 237 238 237 240 245 249 251 254 253 246 252 265 273 275 280 280 289 292 293 292 291 290 288 284 282 284 289 294 298 299 298 298 302 303 303 304 304
239 239 242 247 250 252 254 254 254 252 247 248 258 268 269 276 277 283 289 297 298 289 300 294 290 287 286 283 289 298 300 299 299 301 302 302 301 302
241 244 241 241 247 254 258 260 258 254 248 247 256 263 269 270 279 280 289 296 294 305 302 297 293 287 292 287 294 296 296 298 300 301 300 300 301 303
239 245 251 245 247 250 256 261 261 257 251 247 252 260 267 272 274 275 278 284 283 296 296 288 294 291 303 295 294 293 295 298 302 303 305 305 306 307
244 246 251 258 254 263 266 267 266 261 254 250 254 262 269 271 268 270 275 284 288 292 298 288 297 303 308 295 288 291 296 300 303 307 311 314 314 314
267 265 263 267 267 276 272 269 266 263 259 255 260 265 269 268 267 270 272 276 287 296 300 292 301 313 307 298 300 297 296 299 303 306 310 315 318 318
276 268 263 273 279 284 275 265 263 266 269 268 261 255 253 247 246 249 255 258 280 285 291 297 296 321 312 307 314 311 305 302 304 306 311 315 317 315
274 277 272 281 284 288 283 272 270 277 270 270 273 270 264 262 265 275 275 262 262 269 272 297 291 301 289 299 306 310 315 317 314 311 313 314 314 313
268 275 284 293 293 296 294 286 275 271 267 263 266 275 280 286 304 310 305 300 289 276 270 276 269 275 283 290 294 307 317 314 310 310 314 313 312 313
271 278 289 294 295 292 296 298 278 264 257 256 264 280 291 292 298 309 315 312 313 306 297 293 280 272 272 274 286 295 309 311 308 312 315 313 312 314
279 277 286 293 297 302 304 308 298 284 269 265 273 285 293 287 285 298 303 310 318 323 332 324 307 292 287 285 280 283 298 299 304 312 315 312 313 312
298 298 307 311 309 305 309 314 308 299 286 281 278 281 285 287 295 299 297 305 303 308 328 341 345 332 308 290 282 286 299 307 308 313 316 318 319 316
330 299 294 294 297 299 298 295 293 293 297 286 271 273 271 276 288 299 297 294 295 302 312 321 333 332 328 333 302 285 303 310 315 316 314 315 316 325
281 287 284 287 288 290 290 287 292 299 293 275 267 266 267 270 277 283 291 301 302 301 305 306 312 321 323 325 327 313 306 312 316 317 315 312 309 315
275 275 279 283 285 285 288 291 293 295 284 277 275 269 266 267 272 276 280 289 301 306 306 308 311 316 306 303 303 307 309 304 311 316 319 318 313 307
276 278 282 285 287 288 285 283 285 285 281 269 264 262 258 257 264 269 274 281 289 292 296 304 314 316 305 296 297 307 322 329 316 307 314 319 320 317
278 280 285 288 287 283 279 278 277 276 275 266 264 259 251 249 255 261 264 269 278 287 299 306 308 310 303 295 303 311 321 332 335 332 318 300 304 312
281 283 281 281 281 281 275 268 266 268 269 266 259 255 253 255 257 258 266 271 277 284 297 305 314 322 317 304 303 310 321 327 331 338 343 341 325 308